Time,TemperatureF,DewpointF,PressureIn,WindDirection,WindDirectionDegrees,WindSpeedMPH,WindSpeedGustMPH,Humidity,HourlyPrecipIn,Conditions,Clouds,dailyrainin,SoftwareType,DateUTC
2013-01-29 00:00:00,38.0,38.0,-100.00,North,-999,0.0,0.0,100,-99.99,,,-99.99,,2013-01-29 08:00:00,
2013-01-29 00:11:00,38.0,38.0,-100.00,SE,135,1.0,1.0,100,-99.99,,,-99.99,,2013-01-29 08:11:00,
2013-01-29 00:20:00,38.0,38.0,-100.00,North,-999,0.0,0.0,100,-99.99,,,-99.99,,2013-01-29 08:20:00,
2013-01-29 00:30:00,38.0,38.0,-100.00,SE,135,1.0,1.0,100,-99.99,,,-99.99,,2013-01-29 08:30:00,
2013-01-29 00:31:00,38.0,38.0,-100.00,North,-999,0.0,0.0,100,-99.99,,,-99.99,,2013-01-29 08:31:00,
2013-01-29 00:41:00,38.0,38.0,-100.00,North,-999,0.0,0.0,100,-99.99,,,-99.99,,2013-01-29 08:41:00,
2013-01-29 00:50:00,38.0,38.0,-100.00,North,-999,0.0,0.0,100,-99.99,,,-99.99,,2013-01-29 08:50:00,
2013-01-29 01:00:00,38.0,38.0,-100.00,North,-999,0.0,0.0,100,-99.99,,,-99.99,,2013-01-29 09:00:00,
2013-01-29 01:11:00,38.0,38.0,-100.00,North,-999,0.0,0.0,100,-99.99,,,-99.99,,2013-01-29 09:11:00,
2013-01-29 01:20:00,38.0,38.0,-100.00,North,-999,0.0,0.0,100,-99.99,,,-99.99,,2013-01-29 09:20:00,
2013-01-29 01:30:00,38.0,38.0,-100.00,North,-999,0.0,0.0,100,-99.99,,,-99.99,,2013-01-29 09:30:00,
2013-01-29 01:42:00,38.0,38.0,-100.00,North,-999,0.0,0.0,100,-99.99,,,-99.99,,2013-01-29 09:42:00,
2013-01-29 01:50:00,38.0,38.0,-100.00,North,-999,0.0,0.0,100,-99.99,,,-99.99,,2013-01-29 09:50:00,
2013-01-29 02:00:00,38.0,38.0,-100.00,SE,135,1.0,1.0,100,-99.99,,,-99.99,,2013-01-29 10:00:00,
2013-01-29 02:11:00,38.0,38.0,-100.00,North,-999,0.0,0.0,100,-99.99,,,-99.99,,2013-01-29 10:11:00,
2013-01-29 02:20:00,38.0,38.0,-100.00,North,-999,0.0,0.0,100,-99.99,,,-99.99,,2013-01-29 10:20:00,
2013-01-29 02:30:00,38.0,38.0,-100.00,SE,135,3.0,3.0,100,-99.99,,,-99.99,,2013-01-29 10:30:00,
2013-01-29 02:41:00,38.0,38.0,-100.00,North,-999,0.0,0.0,100,-99.99,,,-99.99,,2013-01-29 10:41:00,
2013-01-29 03:00:00,38.0,38.0,-100.00,SE,135,3.0,3.0,100,-99.99,,,-99.99,,2013-01-29 11:00:00,
2013-01-29 03:11:00,38.0,38.0,-100.00,North,-999,0.0,0.0,100,-99.99,,,-99.99,,2013-01-29 11:11:00,
2013-01-29 03:20:00,38.0,38.0,-100.00,SE,135,1.0,1.0,100,-99.99,,,-99.99,,2013-01-29 11:20:00,
2013-01-29 03:30:00,38.0,38.0,-100.00,North,-999,0.0,0.0,100,-99.99,,,-99.99,,2013-01-29 11:30:00,
2013-01-29 03:42:00,38.0,38.0,-100.00,SE,135,1.0,1.0,100,-99.99,,,-99.99,,2013-01-29 11:42:00,
2013-01-29 03:50:00,38.0,38.0,-100.00,North,-999,0.0,0.0,100,-99.99,,,-99.99,,2013-01-29 11:50:00,
2013-01-29 03:52:00,38.0,38.0,-100.00,SE,135,3.0,3.0,100,-99.99,,,-99.99,,2013-01-29 11:52:00,
2013-01-29 04:00:00,39.0,39.0,-100.00,North,-999,0.0,0.0,100,-99.99,,,-99.99,,2013-01-29 12:00:00,
2013-01-29 04:12:00,38.0,38.0,-100.00,SE,135,1.0,1.0,100,-99.99,,,-99.99,,2013-01-29 12:12:00,
2013-01-29 04:30:00,39.0,39.0,-100.00,North,-999,0.0,0.0,100,-99.99,,,-99.99,,2013-01-29 12:30:00,
2013-01-29 04:42:00,38.0,38.0,-100.00,North,-999,0.0,0.0,100,-99.99,,,-99.99,,2013-01-29 12:42:00,
2013-01-29 04:50:00,39.0,39.0,-100.00,North,-999,0.0,0.0,100,-99.99,,,-99.99,,2013-01-29 12:50:00,
2013-01-29 05:00:00,39.0,39.0,-100.00,North,-999,0.0,0.0,100,-99.99,,,-99.99,,2013-01-29 13:00:00,
2013-01-29 05:11:00,39.0,39.0,-100.00,North,-999,0.0,0.0,100,-99.99,,,-99.99,,2013-01-29 13:11:00,
2013-01-29 05:30:00,39.0,39.0,-100.00,North,-999,0.0,0.0,100,-99.99,,,-99.99,,2013-01-29 13:30:00,
2013-01-29 05:42:00,39.0,39.0,-100.00,North,-999,0.0,0.0,100,-99.99,,,-99.99,,2013-01-29 13:42:00,
2013-01-29 05:50:00,39.0,39.0,-100.00,North,-999,0.0,0.0,100,-99.99,,,-99.99,,2013-01-29 13:50:00,
2013-01-29 06:00:00,39.0,39.0,-100.00,North,-999,0.0,0.0,100,-99.99,,,0.00,,2013-01-29 14:00:00,
2013-01-29 06:12:00,39.0,39.0,-100.00,North,-999,0.0,0.0,100,-99.99,,,-99.99,,2013-01-29 14:12:00,
2013-01-29 06:20:00,39.0,39.0,-100.00,North,-999,0.0,0.0,100,-99.99,,,0.00,,2013-01-29 14:20:00,
2013-01-29 06:30:00,40.0,40.0,-100.00,North,-999,0.0,0.0,100,-99.99,,,0.00,,2013-01-29 14:30:00,
2013-01-29 06:43:00,39.0,39.0,-100.00,North,-999,0.0,0.0,100,-99.99,,,-99.99,,2013-01-29 14:43:00,
2013-01-29 06:50:00,40.0,40.0,-100.00,North,-999,0.0,0.0,100,-99.99,,,0.00,,2013-01-29 14:50:00,
2013-01-29 07:00:00,40.0,40.0,-100.00,North,-999,0.0,0.0,100,-99.99,,,0.00,,2013-01-29 15:00:00,
2013-01-29 07:12:00,39.0,39.0,-100.00,North,-999,0.0,0.0,100,-99.99,,,0.00,,2013-01-29 15:12:00,
2013-01-29 07:20:00,40.0,40.0,-100.00,North,-999,0.0,0.0,100,-99.99,,,0.00,,2013-01-29 15:20:00,
2013-01-29 07:30:00,41.0,41.0,-100.00,North,-999,0.0,0.0,100,-99.99,,,0.00,,2013-01-29 15:30:00,
2013-01-29 07:42:00,40.0,40.0,-100.00,North,-999,0.0,0.0,100,-99.99,,,0.00,,2013-01-29 15:42:00,
2013-01-29 07:50:00,41.0,41.0,-100.00,North,-999,0.0,0.0,100,-99.99,,,-99.99,,2013-01-29 15:50:00,
2013-01-29 08:12:00,40.0,40.0,-100.00,North,-999,0.0,0.0,100,-99.99,,,0.00,,2013-01-29 16:12:00,
2013-01-29 08:20:00,41.0,41.0,-100.00,North,-999,0.0,0.0,100,-99.99,,,0.00,,2013-01-29 16:20:00,
2013-01-29 08:42:00,41.0,41.0,-100.00,North,-999,0.0,0.0,100,-99.99,,,-99.99,,2013-01-29 16:42:00,
2013-01-29 08:50:00,41.0,41.0,-100.00,SE,135,1.0,1.0,100,-99.99,,,0.00,,2013-01-29 16:50:00,
2013-01-29 09:00:00,41.0,41.0,-100.00,North,-999,0.0,0.0,100,-99.99,,,0.00,,2013-01-29 17:00:00,
2013-01-29 09:12:00,41.0,41.0,-100.00,North,-999,0.0,0.0,100,-99.99,,,0.00,,2013-01-29 17:12:00,
2013-01-29 09:30:00,41.0,41.0,-100.00,SE,135,1.0,1.0,100,-99.99,,,0.00,,2013-01-29 17:30:00,
2013-01-29 09:42:00,41.0,41.0,-100.00,SE,135,1.0,1.0,100,-99.99,,,0.00,,2013-01-29 17:42:00,
2013-01-29 09:50:00,41.0,41.0,-100.00,SE,135,1.0,1.0,100,-99.99,,,0.00,,2013-01-29 17:50:00,
2013-01-29 10:00:00,42.0,42.0,-100.00,North,-999,0.0,0.0,100,-99.99,,,0.00,,2013-01-29 18:00:00,
2013-01-29 10:20:00,42.0,42.0,-100.00,North,-999,0.0,0.0,100,-99.99,,,0.00,,2013-01-29 18:20:00,
2013-01-29 10:30:00,42.0,42.0,-100.00,North,-999,0.0,0.0,100,-99.99,,,0.00,,2013-01-29 18:30:00,
2013-01-29 10:42:00,41.0,41.0,-100.00,SE,135,1.0,1.0,100,-99.99,,,0.00,,2013-01-29 18:42:00,
2013-01-29 10:50:00,42.0,42.0,-100.00,North,-999,0.0,0.0,100,-99.99,,,0.00,,2013-01-29 18:50:00,
2013-01-29 11:00:00,42.0,42.0,-100.00,North,-999,0.0,0.0,100,-99.99,,,0.00,,2013-01-29 19:00:00,
2013-01-29 11:12:00,42.0,42.0,-100.00,North,-999,0.0,0.0,100,-99.99,,,0.00,,2013-01-29 19:12:00,
2013-01-29 11:20:00,41.0,41.0,-100.00,North,-999,0.0,0.0,100,-99.99,,,0.00,,2013-01-29 19:20:00,
2013-01-29 11:30:00,42.0,42.0,-100.00,North,-999,0.0,0.0,100,-99.99,,,-99.99,,2013-01-29 19:30:00,
2013-01-29 11:40:00,42.0,42.0,-100.00,North,-999,0.0,0.0,100,-99.99,,,0.00,,2013-01-29 19:40:00,
2013-01-29 11:42:00,42.0,42.0,-100.00,North,-999,0.0,0.0,100,-99.99,,,0.00,,2013-01-29 19:42:00,
2013-01-29 12:00:00,42.0,42.0,-100.00,North,-999,0.0,0.0,100,-99.99,,,0.00,,2013-01-29 20:00:00,
2013-01-29 12:12:00,41.0,41.0,-100.00,North,-999,0.0,0.0,100,-99.99,,,0.00,,2013-01-29 20:12:00,
2013-01-29 12:20:00,42.0,42.0,-100.00,North,-999,0.0,0.0,100,-99.99,,,0.00,,2013-01-29 20:20:00,
2013-01-29 12:30:00,42.0,42.0,-100.00,North,-999,0.0,0.0,100,-99.99,,,0.00,,2013-01-29 20:30:00,
2013-01-29 12:50:00,42.0,42.0,-100.00,North,-999,0.0,0.0,100,-99.99,,,-99.99,,2013-01-29 20:50:00,
2013-01-29 13:00:00,42.0,42.0,-100.00,North,-999,0.0,0.0,100,-99.99,,,0.00,,2013-01-29 21:00:00,
2013-01-29 13:12:00,42.0,42.0,-100.00,North,-999,0.0,0.0,100,-99.99,,,0.00,,2013-01-29 21:12:00,
2013-01-29 13:20:00,42.0,42.0,-100.00,SE,135,1.0,1.0,100,-99.99,,,0.00,,2013-01-29 21:20:00,
2013-01-29 13:30:00,42.0,42.0,-100.00,North,-999,0.0,0.0,100,-99.99,,,0.00,,2013-01-29 21:30:00,
2013-01-29 13:42:00,42.0,42.0,-100.00,North,-999,0.0,0.0,100,-99.99,,,-99.99,,2013-01-29 21:42:00,
2013-01-29 13:50:00,43.0,43.0,-100.00,North,-999,0.0,0.0,100,-99.99,,,-99.99,,2013-01-29 21:50:00,
2013-01-29 14:00:00,43.0,43.0,-100.00,SE,135,3.0,3.0,100,-99.99,,,0.00,,2013-01-29 22:00:00,
2013-01-29 14:12:00,42.0,42.0,-100.00,SE,135,1.0,1.0,100,-99.99,,,0.00,,2013-01-29 22:12:00,
2013-01-29 14:20:00,42.0,42.0,-100.00,SE,135,3.0,3.0,100,-99.99,,,-99.99,,2013-01-29 22:20:00,
2013-01-29 14:30:00,42.0,42.0,-100.00,North,-999,0.0,0.0,100,-99.99,,,0.00,,2013-01-29 22:30:00,
2013-01-29 14:42:00,43.0,43.0,-100.00,North,-999,0.0,0.0,100,-99.99,,,-99.99,,2013-01-29 22:42:00,
2013-01-29 14:50:00,42.0,42.0,-100.00,SE,135,2.0,2.0,100,-99.99,,,0.00,,2013-01-29 22:50:00,
2013-01-29 15:00:00,42.0,42.0,-100.00,SE,135,1.0,1.0,100,-99.99,,,0.00,,2013-01-29 23:00:00,
2013-01-29 15:12:00,42.0,42.0,-100.00,SE,135,3.0,3.0,100,-99.99,,,-99.99,,2013-01-29 23:12:00,
2013-01-29 15:20:00,42.0,42.0,-100.00,SE,135,1.0,1.0,100,-99.99,,,-99.99,,2013-01-29 23:20:00,
2013-01-29 15:30:00,42.0,42.0,-100.00,SE,135,1.0,1.0,100,-99.99,,,0.00,,2013-01-29 23:30:00,
2013-01-29 15:42:00,42.0,42.0,-100.00,SE,135,2.0,2.0,100,-99.99,,,0.00,,2013-01-29 23:42:00,
2013-01-29 15:50:00,42.0,42.0,-100.00,SE,135,2.0,2.0,100,-99.99,,,0.00,,2013-01-29 23:50:00,
2013-01-29 16:11:00,42.0,42.0,-100.00,SE,135,1.0,1.0,100,-99.99,,,-99.99,,2013-01-30 00:11:00,
2013-01-29 16:20:00,42.0,42.0,-100.00,SE,135,1.0,1.0,100,-99.99,,,-99.99,,2013-01-30 00:20:00,
2013-01-29 16:30:00,43.0,43.0,-100.00,North,-999,0.0,0.0,100,-99.99,,,0.00,,2013-01-30 00:30:00,
2013-01-29 16:42:00,42.0,42.0,-100.00,SE,135,2.0,2.0,100,-99.99,,,0.00,,2013-01-30 00:42:00,
2013-01-29 16:50:00,43.0,43.0,-100.00,North,-999,0.0,0.0,100,-99.99,,,0.00,,2013-01-30 00:50:00,
2013-01-29 17:00:00,43.0,43.0,-100.00,North,-999,0.0,0.0,100,-99.99,,,0.00,,2013-01-30 01:00:00,
2013-01-29 17:11:00,42.0,42.0,-100.00,SE,135,1.0,1.0,100,-99.99,,,-99.99,,2013-01-30 01:11:00,
2013-01-29 17:20:00,43.0,43.0,-100.00,SE,135,1.0,1.0,100,-99.99,,,0.00,,2013-01-30 01:20:00,
2013-01-29 17:42:00,43.0,43.0,-100.00,North,-999,0.0,0.0,100,-99.99,,,0.00,,2013-01-30 01:42:00,
2013-01-29 17:50:00,43.0,43.0,-100.00,South,180,1.0,1.0,100,-99.99,,,0.00,,2013-01-30 01:50:00,
2013-01-29 18:12:00,43.0,43.0,-100.00,SE,135,1.0,1.0,100,-99.99,,,0.00,,2013-01-30 02:12:00,
2013-01-29 18:20:00,43.0,43.0,-100.00,North,-999,0.0,0.0,100,-99.99,,,0.00,,2013-01-30 02:20:00,
2013-01-29 18:30:00,43.0,43.0,-100.00,SE,135,2.0,2.0,100,-99.99,,,0.00,,2013-01-30 02:30:00,
2013-01-29 18:42:00,43.0,43.0,-100.00,South,180,1.0,1.0,100,-99.99,,,0.00,,2013-01-30 02:42:00,
2013-01-29 18:50:00,42.0,42.0,-100.00,SE,135,2.0,2.0,100,-99.99,,,0.00,,2013-01-30 02:50:00,
2013-01-29 19:00:00,43.0,43.0,-100.00,East,90,1.0,1.0,100,-99.99,,,0.00,,2013-01-30 03:00:00,
2013-01-29 19:11:00,43.0,43.0,-100.00,North,-999,0.0,0.0,100,-99.99,,,0.00,,2013-01-30 03:11:00,
2013-01-29 19:20:00,43.0,43.0,-100.00,North,-999,0.0,0.0,100,-99.99,,,0.00,,2013-01-30 03:20:00,
2013-01-29 19:30:00,42.0,42.0,-100.00,SE,135,1.0,1.0,100,-99.99,,,0.00,,2013-01-30 03:30:00,
2013-01-29 19:42:00,42.0,42.0,-100.00,SE,135,2.0,2.0,100,-99.99,,,0.00,,2013-01-30 03:42:00,
2013-01-29 19:50:00,42.0,42.0,-100.00,SE,135,2.0,2.0,100,-99.99,,,0.00,,2013-01-30 03:50:00,
2013-01-29 20:00:00,42.0,42.0,-100.00,SE,135,2.0,2.0,100,-99.99,,,0.00,,2013-01-30 04:00:00,
2013-01-29 20:11:00,43.0,43.0,-100.00,North,-999,0.0,0.0,100,-99.99,,,0.00,,2013-01-30 04:11:00,
2013-01-29 20:20:00,42.0,42.0,-100.00,SE,135,5.0,5.0,100,-99.99,,,0.00,,2013-01-30 04:20:00,
2013-01-29 20:30:00,42.0,42.0,-100.00,North,-999,0.0,0.0,100,-99.99,,,0.00,,2013-01-30 04:30:00,
2013-01-29 20:41:00,42.0,42.0,-100.00,SE,135,2.0,2.0,100,-99.99,,,0.00,,2013-01-30 04:41:00,
2013-01-29 21:00:00,42.0,42.0,-100.00,North,-999,0.0,0.0,100,-99.99,,,0.00,,2013-01-30 05:00:00,
2013-01-29 21:12:00,42.0,42.0,-100.00,SE,135,5.0,5.0,100,-99.99,,,0.00,,2013-01-30 05:12:00,
2013-01-29 21:20:00,42.0,42.0,-100.00,North,-999,0.0,0.0,100,-99.99,,,0.00,,2013-01-30 05:20:00,
2013-01-29 21:30:00,42.0,42.0,-100.00,SE,135,5.0,5.0,100,-99.99,,,-99.99,,2013-01-30 05:30:00,
2013-01-29 21:42:00,42.0,42.0,-100.00,SE,135,1.0,1.0,100,-99.99,,,0.00,,2013-01-30 05:42:00,
2013-01-29 21:50:00,42.0,42.0,-100.00,North,-999,0.0,0.0,100,-99.99,,,0.00,,2013-01-30 05:50:00,
2013-01-29 21:52:00,42.0,42.0,-100.00,North,-999,0.0,0.0,100,-99.99,,,0.00,,2013-01-30 05:52:00,
2013-01-29 22:00:00,42.0,42.0,-100.00,North,-999,0.0,0.0,100,-99.99,,,0.00,,2013-01-30 06:00:00,
2013-01-29 22:11:00,42.0,42.0,-100.00,North,-999,0.0,0.0,100,-99.99,,,0.00,,2013-01-30 06:11:00,
2013-01-29 22:30:00,42.0,42.0,-100.00,SE,135,8.0,8.0,100,-99.99,,,0.00,,2013-01-30 06:30:00,
2013-01-29 22:41:00,42.0,42.0,-100.00,North,-999,0.0,0.0,100,-99.99,,,0.00,,2013-01-30 06:41:00,
2013-01-29 22:50:00,42.0,42.0,-100.00,SE,135,2.0,2.0,100,-99.99,,,0.00,,2013-01-30 06:50:00,
2013-01-29 23:00:00,42.0,42.0,-100.00,North,-999,0.0,0.0,100,-99.99,,,0.00,,2013-01-30 07:00:00,
2013-01-29 23:11:00,42.0,42.0,-100.00,East,90,6.0,6.0,100,-99.99,,,0.00,,2013-01-30 07:11:00,
2013-01-29 23:20:00,42.0,42.0,-100.00,SE,135,3.0,3.0,100,-99.99,,,0.00,,2013-01-30 07:20:00,
2013-01-29 23:41:00,42.0,42.0,-100.00,SE,135,2.0,2.0,100,-99.99,,,0.00,,2013-01-30 07:41:00,
2013-01-29 23:50:00,42.0,42.0,-100.00,North,-999,0.0,0.0,100,-99.99,,,0.00,,2013-01-30 07:50:00,